Terug naar catalogus

COSMOS 1066

ActiefMilitairPO
NORAD 11165·PAYLOAD·🇷🇺 Russia

Gelanceerd Dec 23, 1978 vanaf Plesetsk Cosmodrome

Loading…

Volgende Passages (komende 24 uur)

TLE

VersSource: Space-Track

Epoch: Sep 14, 2026, 04:10 UTC

1 11165U 78121A   26257.17376836  .00000045  00000-0  17651-4 0  9999
2 11165  81.2399 168.7761 0048973 202.5335 157.3687 14.12116891973881

Volg COSMOS 1066 in realtime met AllMySat

Download on the App Store